Weather History for KAPC - May, 2013

Change the Weather History Date:

Thursday, May 23, 2013

  Actual Average Record
Temperature  
Mean Temperature 57 °F 60 °F  
Max Temperature 71 °F 74 °F 91 °F (2000)
Min Temperature 43 °F 47 °F 31 °F (2010)
Degree Days  
Heating Degree Days 8    
Month to date heating degree days 72  
Since 1 July heating degree days 2816  
Cooling Degree Days 0    
Month to date cooling degree days 15  
Year to date cooling degree days 18  
Growing Degree Days 8 (Base 50)    
Moisture  
Dew Point 41 °F    
Average Humidity 57    
Maximum Humidity 83    
Minimum Humidity 31    
Precipitation  
Precipitation 0.00 in - 1.30 in (1960)
Month to date precipitation 0.05  
Year to date precipitation 1.75  
Since 1 July precipitation 9.54  
Sea Level Pressure  
Sea Level Pressure 29.94 in    
Wind  
Wind Speed 8 mph (WSW)    
Max Wind Speed 20 mph    
Max Gust Speed 24 mph    
Visibility 10 miles    
Events      
T = Trace of Precipitation, MM = Missing Value Source: NWS Daily Summary

Daily Weather History Graph

Daily Weather History Graph

Search for Another Location

Airport or City:

Trip Planner

Search our weather history database for the weather conditions in past years. The results will help you decide how hot, cold, wet, or windy it might be!

Date:

Astronomy

May. 23, 2013 Rise Set
Actual Time 5:52 AM PDT 8:20 PM PDT
Civil Twilight 5:21 AM PDT 8:50 PM PDT
Nautical Twilight 4:44 AM PDT 9:28 PM PDT
Astronomical Twilight 4:02 AM PDT 10:10 PM PDT
Moon 7:00 PM PDT (5/23) 4:39 AM PDT (5/23)
Length of Visible Light 15h 28m
Length of Day
14h 28m
Waxing Gibbous, 97% of the Moon is Illuminated
May 23
Waxing Gibbous
May 24
Full
May 31
Last Quarter
Jun 8
New
Jun 16
First Quarter

Hourly Weather History & Observations

Time (PDT) Temp. Windchill Dew Point Humidity Pressure Visibility Wind Dir Wind Speed Gust Speed Precip Events Conditions
12:54 AM 48.9 °F - 39.9 °F 71% 29.89 in 10.0 mi WSW 9.2 mph - N/A   Clear
1:54 AM 48.0 °F - 41.0 °F 77% 29.89 in 10.0 mi WSW 13.8 mph - N/A   Clear
2:54 AM 46.9 °F - 39.9 °F 77% 29.88 in 10.0 mi WSW 10.4 mph - N/A   Clear
3:54 AM 46.9 °F - 39.9 °F 77% 29.89 in 10.0 mi WSW 10.4 mph - N/A   Clear
4:54 AM 46.0 °F 40.6 °F 39.9 °F 79% 29.90 in 10.0 mi West 11.5 mph - N/A   Clear
5:54 AM 44.1 °F 40.1 °F 39.0 °F 82% 29.90 in 10.0 mi West 6.9 mph - N/A   Clear
6:54 AM 46.0 °F 43.1 °F 39.0 °F 76% 29.92 in 10.0 mi West 5.8 mph - N/A   Clear
7:54 AM 51.1 °F - 39.9 °F 66% 29.93 in 10.0 mi Calm Calm - N/A   Clear
8:54 AM 55.0 °F - 39.0 °F 55% 29.94 in 10.0 mi West 5.8 mph - N/A   Clear
9:54 AM 57.9 °F - 39.0 °F 49% 29.95 in 10.0 mi SW 6.9 mph - N/A   Clear
10:54 AM 61.0 °F - 39.9 °F 46% 29.96 in 10.0 mi South 6.9 mph - N/A   Clear
11:54 AM 64.9 °F - 39.9 °F 40% 29.96 in 10.0 mi SSW 8.1 mph - N/A   Clear
12:54 PM 66.9 °F - 41.0 °F 39% 29.96 in 10.0 mi SSW 11.5 mph - N/A   Clear
1:54 PM 68.0 °F - 41.0 °F 37% 29.96 in 10.0 mi SSW 11.5 mph - N/A   Clear
2:54 PM 71.1 °F - 43.0 °F 36% 29.95 in 10.0 mi SW 11.5 mph - N/A   Clear
3:54 PM 69.1 °F - 43.0 °F 39% 29.95 in 10.0 mi SW 15.0 mph - N/A   Clear
4:54 PM 71.1 °F - 39.9 °F 32% 29.95 in 10.0 mi West 8.1 mph - N/A   Clear
5:54 PM 70.0 °F - 37.9 °F 31% 29.94 in 10.0 mi SW 9.2 mph - N/A   Clear
6:54 PM 64.9 °F - 39.9 °F 40% 29.94 in 10.0 mi WSW 18.4 mph 24.2 mph N/A   Clear
7:54 PM 61.0 °F - 43.0 °F 52% 29.95 in 10.0 mi WSW 8.1 mph - N/A   Clear
8:54 PM 54.0 °F - 43.0 °F 66% 29.95 in 10.0 mi West 5.8 mph - N/A   Clear
9:54 PM 52.0 °F - 43.0 °F 71% 29.97 in 10.0 mi SSE 3.5 mph - N/A   Clear
10:54 PM 48.9 °F - 43.0 °F 80% 29.98 in 10.0 mi Calm Calm - N/A   Clear
11:54 PM 48.9 °F - 42.1 °F 77% 29.96 in 10.0 mi West 4.6 mph - N/A   Clear